Location: Fiorano Modenese
(44.5333°N, 10.8167°E)
Time: 20:53:42
(UTC+00:00)

Daily predictions for brighter satellites

Satellite Brightness Start Highest point End
(mag) Time Altitude Azimuth Time Altitude Azimuth Time Altitude Azimuth
Cosmos 1464 Rocket 4.2 16:04:54 10° SSE 16:11:05 57° E 16:17:20 10° NNE
NOAA 6 4.3 16:08:05 10° SE 16:13:02 48° ENE 16:17:58 10° N
Cosmos 1461 4.1 16:09:12 10° WSW 16:13:11 38° NW 16:17:02 10° NNE
Cosmos 1271 Rocket 3.0 16:15:16 10° SSW 16:19:10 77° W 16:23:09 10° N
NOSS 2-1 (E) 3.5 16:16:50 10° SW 16:20:02 51° NW 16:23:18 10° NNE
Cosmos 1408 Rocket 3.8 16:16:03 10° N 16:20:16 47° ENE 16:24:28 10° SSE
CZ-4B R/B 3.0 16:17:34 10° SSE 16:21:48 87° W 16:25:50 10° NNW
Cosmos 1697 Rocket 3.7 16:19:42 10° N 16:24:16 24° NE 16:28:47 10° ESE
Cosmos 1743 Rocket 4.4 16:20:47 10° NNE 16:24:34 28° ENE 16:28:19 10° SE
Cosmos 1980 Rocket 3.7 16:22:26 10° N 16:25:45 15° NE 16:28:50 11° ENE
Cosmos 1763 Rocket 4.4 16:22:13 10° SSE 16:26:27 28° E 16:30:43 10° NE
deb Kosmos-1763 3.8 16:23:10 10° SSW 16:26:34 73° ESE 16:29:59 10° NNE
Lacrosse 5 2.8 16:22:57 10° NW 16:27:56 54° SW 16:32:53 10° SSE
Nadezhda 4 Rocket 4.1 16:21:52 10° N 16:28:04 57° ENE 16:34:17 10° SSE
USA 267 3.8 16:22:17 10° NE 16:28:37 54° NNW 16:34:56 10° WSW
USA 305 3.8 16:25:30 10° W 16:29:30 40° NNW 16:33:22 11° NE
CZ-2C R/B 3.3 16:24:59 10° S 16:30:01 72° WSW 16:34:52 10° NNW
Cosmos 1656 3.9 16:25:29 10° NNW 16:30:50 47° ENE 16:36:12 10° SE
CZ-4B DEB 4.3 16:26:56 10° SSE 16:32:19 57° ENE 16:37:43 10° N
Cosmos 2082 Rocket 3.9 16:33:02 10° ESE 16:35:25 13° E 16:36:39 12° E
Cosmos 1340 Rocket 3.1 16:33:19 10° N 16:37:14 43° ENE 16:41:07 10° SSE
Cosmos 1092 Rocket 4.4 16:32:19 10° N 16:38:17 41° ENE 16:44:13 10° SE
USA 229 DEB 4.2 16:32:10 10° NNW 16:39:04 44° NE 16:46:25 10° ESE
USA 229 4.2 16:32:15 10° NNW 16:39:10 44° NE 16:46:29 10° ESE
COSMOS 2406 4.3 16:35:46 10° SSE 16:40:18 25° ESE 16:43:56 14° NE
AQUARIUS 4.1 16:36:42 10° SSE 16:41:09 74° ENE 16:45:39 10° N
Cosmos 990 Rocket 4.3 16:37:19 10° N 16:42:18 44° ENE 16:47:14 10° SE
Lacrosse 5 rocket 3.4 16:41:22 10° NNW 16:43:17 13° N 16:45:15 10° NNE
ATLAS 2AS CENTAUR R/B 4.4 16:39:00 10° W 16:45:18 26° NNW 16:51:25 10° NNE
USA 276 2.9 16:43:23 10° NW 16:46:19 35° NNE 16:47:51 21° ENE
ATLAS CENTAUR R/B 3.5 16:35:56 10° SSW 16:47:12 58° SE 16:50:57 17° ENE
Cosmos 1933 4.0 16:44:04 10° SSE 16:47:43 33° E 16:51:19 10° NNE
PAYLOAD B 4.3 16:42:26 10° SSE 16:47:56 60° ENE 16:53:27 10° N
SJ 16-02 2.4 16:46:50 10° NNW 16:51:04 48° WSW 16:55:16 10° S
Cosmos 2034 Rocket 3.9 16:48:21 10° S 16:54:31 84° E 17:00:42 10° N
Cosmos 1500 Rocket 3.5 16:50:41 10° N 16:55:08 64° E 16:59:30 10° SSE
TIMED 4.5 16:51:58 10° SSW 16:56:20 90° W 17:00:44 10° NNE
CORIOLIS 4.3 16:53:26 10° S 16:58:49 78° WSW 17:04:16 10° NNW
CZ-2D R/B 3.1 16:56:34 10° SSE 17:00:24 73° ENE 17:04:15 10° N
USA 306 4.2 16:57:44 10° W 17:01:32 31° NNW 17:04:00 18° NNE
USA 234 4.0 16:55:36 10° SSE 17:01:58 54° SW 17:08:22 10° WNW
NOSS 3-1 (A) 4.1 16:55:19 10° NNW 17:02:42 62° NE 17:11:20 10° SE
Meteor 1-20 Rocket 4.2 16:59:32 10° N 17:05:21 72° ENE 17:11:11 10° SSE
NOSS 3-1 (C) 4.1 16:58:19 10° NW 17:05:54 90° SW 17:14:45 10° SE
Cosmos 1805 Rocket 3.7 17:01:45 10° N 17:05:58 48° ENE 17:10:09 10° SSE
Cosmos 1842 Rocket 4.2 17:02:00 10° SSW 17:06:22 57° W 17:10:48 10° N
Cosmos 1833 Rocket 2.8 17:02:28 10° S 17:07:52 52° ESE 17:11:51 18° NE
Cosmos 2360 4.4 17:05:33 10° NNW 17:11:06 47° ENE 17:16:36 10° SE
PSLV R/B 4.0 17:08:41 10° S 17:12:20 66° W 17:16:01 10° NNW
CZ-4B R/B 3.1 17:07:12 10° SSE 17:12:37 67° ENE 17:17:58 10° N
SMAP 4.4 17:12:21 10° S 17:16:44 42° W 17:21:11 10° NNW
ARGOS 3.2 17:11:37 10° SSE 17:16:55 57° ENE 17:22:13 10° N
Sich 1 3.1 17:13:00 10° N 17:17:10 49° ENE 17:21:20 10° SSE
USA 307 4.3 17:14:19 10° WNW 17:18:05 29° NNW 17:19:51 21° NNE
ERBS 3.9 17:15:35 10° W 17:18:19 25° NNW 17:19:27 20° N
H-2A R/B 2.1 17:13:19 10° SSE 17:18:35 86° WSW 17:23:44 10° NNW
Cosmos 1634 Rocket 4.0 17:13:51 10° S 17:20:03 63° E 17:26:19 10° NNE
Cosmos 1898 Rocket 3.4 17:15:49 10° NNW 17:21:05 69° ENE 17:26:17 10° SSE
MOS 1-B Rocket 3.9 17:16:02 10° NNE 17:21:49 83° ESE 17:28:16 10° SSW
COSMOS 2455 3.4 17:18:47 10° S 17:24:13 37° ESE 17:25:52 31° ENE
Cosmos 2221 4.4 17:22:25 10° SW 17:26:10 30° WNW 17:29:58 10° NNW
Cosmos 468 Rocket 3.9 17:21:07 10° SSW 17:26:15 90° NNW 17:30:21 17° NNE
ATLAS CENTAUR R/B 3.9 17:23:47 10° WNW 17:26:22 15° NNW 17:29:02 10° N
CZ-4 R/B 4.3 17:24:29 10° SSE 17:28:33 67° ENE 17:32:40 10° N
Landsat 5 3.4 17:27:18 36° NE 17:28:45 57° E 17:32:45 10° S
Cosmos 44 3.7 17:24:53 10° NW 17:29:35 59° WSW 17:33:58 10° SSE
SL-19 R/B 4.5 17:24:57 10° NNE 17:31:00 84° ESE 17:37:30 10° SSW
COSMO-SKYMED 1 2.5 17:29:13 16° NNE 17:32:41 88° ESE 17:37:01 10° SSW
SL-08 RB Rocket 3.7 17:30:22 10° SSE 17:34:55 57° ENE 17:39:28 10° N
Cosmos 540 Rocket 3.3 17:29:53 10° S 17:34:55 65° ESE 17:37:03 34° NE
deb Chang Zheng 4 3.6 17:31:02 10° S 17:35:20 79° WSW 17:39:40 10° NNW
Cosmos 2026 Rocket 3.9 17:29:21 10° N 17:35:34 88° E 17:41:39 10° S
SJ-11-01 4.2 17:34:05 10° SSE 17:38:49 90° S 17:43:37 10° NNW
CZ-2C R/B 2.5 17:33:40 10° NNE 17:38:56 87° WNW 17:44:06 10° SSW
Okean O Rocket 1.6 17:35:09 10° SSE 17:39:35 87° W 17:44:04 10° NNW
USA 308 4.4 17:36:57 10° WNW 17:40:31 25° NNW 17:41:12 24° N
Cosmos 1500 4.0 17:37:45 10° N 17:44:46 13° SSE 17:45:15 10° SSE
ISS -1.8 17:43:00 10° NW 17:44:55 22° NNW 17:44:55 22° NNW
Meteor 2-21 4.4 17:40:57 10° N 17:47:06 84° W 17:53:09 10° S
YAOGAN 1 4.4 17:50:23 20° N 17:50:23 20° N 17:51:44 10° N
CZ-4C R/B 3.3 17:41:31 10° NNW 17:48:11 43° NE 17:49:48 38° ENE
Meteor 1-5 Rocket 4.2 17:50:20 10° N 17:56:18 66° ENE 18:02:12 10° SSE
Cosmos 2084 3.6 17:54:58 10° NW 17:59:18 74° SW 17:59:42 68° S
GEOS 3 Rocket 3.7 17:56:54 27° SSE 17:59:53 76° SW 18:05:07 10° NW
NOAA 15 4.4 17:54:57 10° SSE 18:00:13 76° ENE 18:05:31 10° N
Cosmos 2369 3.6 17:54:44 10° NNW 18:00:31 80° ENE 18:02:24 44° SE
Cosmos 2322 Rocket 4.3 17:56:51 10° N 17:57:35 12° N 17:57:35 12° N
Cosmos 1782 3.5 17:57:34 10° SSW 18:01:28 51° WNW 18:02:36 38° NNW
DMSP B5D2-2 4.2 18:06:37 57° SSE 18:06:37 57° SSE 18:10:57 10° S
Cosmos 1697 Rocket 3.1 18:03:06 10° NNW 18:08:38 60° WSW 18:14:08 10° S
Cosmos 1937 Rocket 3.9 18:03:37 10° NNW 18:08:54 65° WSW 18:14:08 10° S
Cosmos 841 Rocket 3.4 18:04:21 10° SSW 18:09:31 82° WNW 18:10:10 68° N
NOSS 2-2 (C) 4.3 18:05:27 10° NNW 18:10:40 69° NE 18:10:59 68° ENE
Cosmos 1980 Rocket 2.0 18:05:04 10° NNW 18:10:40 75° NE 18:10:40 75° NE
USA 267 4.4 18:08:54 27° NNE 18:10:49 31° N 18:16:24 10° WNW
SL-16 R/B 4.1 18:10:18 10° N 18:11:40 16° N 18:11:40 16° N
Cosmos 2082 Rocket 2.1 18:12:54 10° SSW 18:18:33 87° SSE 18:18:33 87° SSE
Cosmos 1151 Rocket 4.3 18:18:18 10° SSW 18:20:53 34° SW 18:20:53 34° SW
Lacrosse 5 rocket 4.0 18:20:38 10° NNW 18:20:53 11° NNW 18:20:53 11° NNW
COSMOS 2406 3.8 18:18:37 10° SW 18:24:13 54° WNW 18:26:02 39° N
Meteor 2-6 Rocket 4.4 18:20:13 10° S 18:25:12 67° S 18:25:12 67° S
Cosmos 2278 4.3 18:20:51 10° NNW 18:24:47 45° N 18:24:47 45° N
Cosmos 1833 Rocket 4.4 18:47:20 10° WSW 18:52:05 27° NW 18:53:35 24° NNW
COSMOS 2455 4.0 19:04:23 10° WSW 19:09:04 40° WNW 19:09:04 40° WNW
CZ-4C R/B 3.8 19:29:53 10° NW 19:35:02 46° WNW 19:35:02 46° WNW
